Time,TemperatureF,DewpointF,PressureIn,WindDirection,WindDirectionDegrees,WindSpeedMPH,WindSpeedGustMPH,Humidity,HourlyPrecipIn,Conditions,Clouds,dailyrainin,SoftwareType,DateUTC
2013-01-13 00:01:00,24.5,5.1,30.03,WSW,248,0.2,1.6,43,0.00,,,0.00,WUHU216HW,2013-01-13 07:01:00,
2013-01-13 00:06:00,24.5,5.1,30.03,WSW,248,1.1,2.2,43,0.00,,,0.00,WUHU216HW,2013-01-13 07:06:00,
2013-01-13 00:11:00,24.1,4.8,30.03,SW,225,1.1,2.2,43,0.00,,,0.00,WUHU216HW,2013-01-13 07:11:00,
2013-01-13 00:16:00,23.9,5.1,30.04,SW,225,0.4,2.0,44,0.00,,,0.00,WUHU216HW,2013-01-13 07:16:00,
2013-01-13 00:21:00,23.8,5.0,30.03,WSW,248,1.6,2.0,44,0.00,,,0.00,WUHU216HW,2013-01-13 07:21:00,
2013-01-13 00:26:00,23.6,4.8,30.03,WSW,248,2.5,3.8,44,0.00,,,0.00,WUHU216HW,2013-01-13 07:26:00,
2013-01-13 00:31:00,23.4,4.6,30.03,SSW,203,1.8,3.8,44,0.00,,,0.00,WUHU216HW,2013-01-13 07:31:00,
2013-01-13 00:36:00,23.4,4.6,30.03,SW,225,1.8,3.1,44,0.00,,,0.00,WUHU216HW,2013-01-13 07:36:00,
2013-01-13 00:41:00,23.4,4.6,30.03,SW,225,2.0,2.9,44,0.00,,,0.00,WUHU216HW,2013-01-13 07:41:00,
2013-01-13 00:46:00,23.2,4.4,30.03,WSW,248,1.3,2.9,44,0.00,,,0.00,WUHU216HW,2013-01-13 07:46:00,
2013-01-13 00:51:00,23.2,4.4,30.03,WSW,248,1.1,2.5,44,0.00,,,0.00,WUHU216HW,2013-01-13 07:51:00,
2013-01-13 00:56:00,23.0,4.3,30.03,West,270,1.1,2.0,44,0.00,,,0.00,WUHU216HW,2013-01-13 07:56:00,
2013-01-13 01:01:00,22.9,4.2,30.03,West,270,0.2,1.6,44,0.00,,,0.00,WUHU216HW,2013-01-13 08:01:00,
2013-01-13 01:06:00,22.7,4.0,30.03,SW,225,0.7,1.1,44,0.00,,,0.00,WUHU216HW,2013-01-13 08:06:00,
2013-01-13 01:11:00,22.3,3.6,30.03,SW,225,1.1,1.8,44,0.00,,,0.00,WUHU216HW,2013-01-13 08:11:00,
2013-01-13 01:16:00,22.0,3.2,30.03,SW,225,1.1,1.8,44,0.00,,,0.00,WUHU216HW,2013-01-13 08:16:00,
2013-01-13 01:21:00,22.0,3.8,30.03,SW,225,1.1,1.8,45,0.00,,,0.00,WUHU216HW,2013-01-13 08:21:00,
2013-01-13 01:26:00,21.8,3.6,30.03,SSW,203,1.8,1.8,45,0.00,,,0.00,WUHU216HW,2013-01-13 08:26:00,
2013-01-13 01:31:00,21.6,3.4,30.04,SSW,203,0.7,1.8,45,0.00,,,0.00,WUHU216HW,2013-01-13 08:31:00,
2013-01-13 01:36:00,21.6,3.4,30.04,SE,135,0.4,1.6,45,0.00,,,0.00,WUHU216HW,2013-01-13 08:36:00,
2013-01-13 01:41:00,21.4,3.3,30.04,SSW,203,0.0,0.7,45,0.00,,,0.00,WUHU216HW,2013-01-13 08:41:00,
2013-01-13 01:46:00,21.2,3.5,30.04,SW,225,0.4,1.1,46,0.00,,,0.00,WUHU216HW,2013-01-13 08:46:00,
2013-01-13 01:51:00,21.2,3.1,30.04,SW,225,0.7,1.6,45,0.00,,,0.00,WUHU216HW,2013-01-13 08:51:00,
2013-01-13 01:56:00,21.1,3.3,30.03,SSW,203,0.9,1.6,46,0.00,,,0.00,WUHU216HW,2013-01-13 08:56:00,
2013-01-13 02:01:00,20.9,3.3,30.03,SSW,203,0.0,1.1,46,0.00,,,0.00,WUHU216HW,2013-01-13 09:01:00,
2013-01-13 02:06:00,20.7,3.1,30.03,SSW,203,0.0,0.7,46,0.00,,,0.00,WUHU216HW,2013-01-13 09:06:00,
2013-01-13 02:11:00,20.7,3.1,30.03,SSW,203,0.0,0.0,46,0.00,,,0.00,WUHU216HW,2013-01-13 09:11:00,
2013-01-13 02:16:00,20.5,2.9,30.03,SSW,203,0.0,0.0,46,0.00,,,0.00,WUHU216HW,2013-01-13 09:16:00,
2013-01-13 02:21:00,20.3,2.7,30.03,SW,225,0.9,1.1,46,0.00,,,0.00,WUHU216HW,2013-01-13 09:21:00,
2013-01-13 02:26:00,20.0,2.4,30.04,SW,225,1.3,1.6,46,0.00,,,0.00,WUHU216HW,2013-01-13 09:26:00,
2013-01-13 02:31:00,19.8,2.7,30.04,WSW,248,0.4,1.6,47,0.00,,,0.00,WUHU216HW,2013-01-13 09:31:00,
2013-01-13 02:36:00,19.8,2.7,30.04,SW,225,1.3,1.3,47,0.00,,,0.00,WUHU216HW,2013-01-13 09:36:00,
2013-01-13 02:41:00,19.8,2.7,30.03,WSW,248,1.8,1.8,47,0.00,,,0.00,WUHU216HW,2013-01-13 09:41:00,
2013-01-13 02:46:00,19.8,3.2,30.03,WSW,248,1.3,2.0,48,0.00,,,0.00,WUHU216HW,2013-01-13 09:46:00,
2013-01-13 02:51:00,19.8,3.2,30.04,WSW,248,1.3,2.0,48,0.00,,,0.00,WUHU216HW,2013-01-13 09:51:00,
2013-01-13 02:56:00,20.0,3.3,30.03,WSW,248,0.9,2.5,48,0.00,,,0.00,WUHU216HW,2013-01-13 09:56:00,
2013-01-13 03:01:00,20.2,3.5,30.03,SW,225,1.8,3.1,48,0.00,,,0.00,WUHU216HW,2013-01-13 10:01:00,
2013-01-13 03:06:00,20.3,3.7,30.03,SSW,203,1.8,3.1,48,0.00,,,0.00,WUHU216HW,2013-01-13 10:06:00,
2013-01-13 03:11:00,20.3,3.7,30.03,SW,225,0.0,2.5,48,0.00,,,0.00,WUHU216HW,2013-01-13 10:11:00,
2013-01-13 03:16:00,20.3,3.7,30.03,North,0,0.2,1.6,48,0.00,,,0.00,WUHU216HW,2013-01-13 10:16:00,
2013-01-13 03:21:00,20.3,3.7,30.03,East,90,0.4,0.4,48,0.00,,,0.00,WUHU216HW,2013-01-13 10:21:00,
2013-01-13 03:26:00,20.0,3.3,30.03,ESE,113,0.4,0.4,48,0.00,,,0.00,WUHU216HW,2013-01-13 10:26:00,
2013-01-13 03:31:00,19.8,3.2,30.03,ESE,113,0.0,0.4,48,0.00,,,0.00,WUHU216HW,2013-01-13 10:31:00,
2013-01-13 03:36:00,19.4,2.9,30.04,ESE,113,0.0,0.4,48,0.00,,,0.00,WUHU216HW,2013-01-13 10:36:00,
2013-01-13 03:41:00,19.3,3.2,30.04,ESE,113,0.0,0.0,49,0.00,,,0.00,WUHU216HW,2013-01-13 10:41:00,
2013-01-13 03:46:00,19.1,3.0,30.04,ESE,113,0.4,0.4,49,0.00,,,0.00,WUHU216HW,2013-01-13 10:46:00,
2013-01-13 03:51:00,18.7,2.7,30.04,East,90,0.4,0.4,49,0.00,,,0.00,WUHU216HW,2013-01-13 10:51:00,
2013-01-13 03:56:00,18.5,3.0,30.04,East,90,0.0,0.4,50,0.00,,,0.00,WUHU216HW,2013-01-13 10:56:00,
2013-01-13 04:01:00,18.4,2.8,30.03,East,90,0.0,0.4,50,0.00,,,0.00,WUHU216HW,2013-01-13 11:01:00,
2013-01-13 04:06:00,18.4,2.8,30.03,East,90,0.0,0.2,50,0.00,,,0.00,WUHU216HW,2013-01-13 11:06:00,
2013-01-13 04:11:00,18.2,2.6,30.03,East,90,0.0,0.0,50,0.00,,,0.00,WUHU216HW,2013-01-13 11:11:00,
2013-01-13 04:16:00,17.8,2.7,30.02,East,90,0.0,0.0,51,0.00,,,0.00,WUHU216HW,2013-01-13 11:16:00,
2013-01-13 04:21:00,17.6,2.5,30.02,SSW,203,0.4,0.4,51,0.00,,,0.00,WUHU216HW,2013-01-13 11:21:00,
2013-01-13 04:26:00,17.5,2.4,30.03,WSW,248,0.4,0.4,51,0.00,,,0.00,WUHU216HW,2013-01-13 11:26:00,
2013-01-13 04:31:00,17.3,2.3,30.03,WSW,248,0.4,0.4,51,0.00,,,0.00,WUHU216HW,2013-01-13 11:31:00,
2013-01-13 04:36:00,16.9,1.9,30.03,West,270,0.2,0.9,51,0.00,,,0.00,WUHU216HW,2013-01-13 11:36:00,
2013-01-13 04:41:00,16.9,1.9,30.03,West,270,0.0,0.9,51,0.00,,,0.00,WUHU216HW,2013-01-13 11:41:00,
2013-01-13 04:46:00,16.7,1.7,30.03,West,270,0.0,0.4,51,0.00,,,0.00,WUHU216HW,2013-01-13 11:46:00,
2013-01-13 04:51:00,16.7,2.2,30.03,ESE,113,0.4,0.9,52,0.00,,,0.00,WUHU216HW,2013-01-13 11:51:00,
2013-01-13 04:56:00,16.6,2.0,30.03,ESE,113,0.2,0.9,52,0.00,,,0.00,WUHU216HW,2013-01-13 11:56:00,
2013-01-13 05:01:00,16.6,2.0,30.03,ESE,113,0.0,0.9,52,0.00,,,0.00,WUHU216HW,2013-01-13 12:01:00,
2013-01-13 05:06:00,16.6,2.3,30.04,ESE,113,0.0,0.4,53,0.00,,,0.00,WUHU216HW,2013-01-13 12:06:00,
2013-01-13 05:11:00,16.4,2.2,30.04,South,180,0.0,0.0,53,0.00,,,0.00,WUHU216HW,2013-01-13 12:11:00,
2013-01-13 05:16:00,16.2,2.0,30.04,South,180,0.0,0.0,53,0.00,,,0.00,WUHU216HW,2013-01-13 12:16:00,
2013-01-13 05:21:00,16.2,2.0,30.04,South,180,0.0,0.0,53,0.00,,,0.00,WUHU216HW,2013-01-13 12:21:00,
2013-01-13 05:26:00,16.0,1.8,30.04,SSE,158,0.2,0.2,53,0.00,,,0.00,WUHU216HW,2013-01-13 12:26:00,
2013-01-13 05:31:00,15.8,2.1,30.05,SSE,158,0.0,0.4,54,0.00,,,0.00,WUHU216HW,2013-01-13 12:31:00,
2013-01-13 05:36:00,15.8,2.1,30.05,SSE,158,0.0,0.4,54,0.00,,,0.00,WUHU216HW,2013-01-13 12:36:00,
2013-01-13 05:41:00,15.7,1.9,30.05,SSE,158,0.0,0.0,54,0.00,,,0.00,WUHU216HW,2013-01-13 12:41:00,
2013-01-13 05:46:00,15.7,2.3,30.05,SSE,158,0.0,0.0,55,0.00,,,0.00,WUHU216HW,2013-01-13 12:46:00,
2013-01-13 05:51:00,15.5,2.1,30.05,SW,225,0.4,0.4,55,0.00,,,0.00,WUHU216HW,2013-01-13 12:51:00,
2013-01-13 05:56:00,15.5,2.1,30.05,SW,225,0.4,0.7,55,0.00,,,0.00,WUHU216HW,2013-01-13 12:56:00,
2013-01-13 06:01:00,15.5,2.1,30.05,SW,225,2.0,2.0,55,0.00,,,0.00,WUHU216HW,2013-01-13 13:01:00,
2013-01-13 06:06:00,15.5,2.1,30.05,SW,225,0.7,2.0,55,0.00,,,0.00,WUHU216HW,2013-01-13 13:06:00,
2013-01-13 06:11:00,15.5,2.1,30.05,SW,225,0.4,2.0,55,0.00,,,0.00,WUHU216HW,2013-01-13 13:11:00,
2013-01-13 06:16:00,15.3,1.9,30.05,SW,225,0.9,1.3,55,0.00,,,0.00,WUHU216HW,2013-01-13 13:16:00,
2013-01-13 06:21:00,15.3,1.9,30.05,SW,225,1.8,1.8,55,0.00,,,0.00,WUHU216HW,2013-01-13 13:21:00,
2013-01-13 06:26:00,15.3,1.9,30.06,SSW,203,1.1,2.2,55,0.00,,,0.00,WUHU216HW,2013-01-13 13:26:00,
2013-01-13 06:31:00,15.3,2.4,30.06,WSW,248,1.1,2.2,56,0.00,,,0.00,WUHU216HW,2013-01-13 13:31:00,
2013-01-13 06:36:00,15.5,2.4,30.06,SE,135,1.8,2.2,56,0.00,,,0.00,WUHU216HW,2013-01-13 13:36:00,
2013-01-13 06:41:00,15.3,2.4,30.06,South,180,0.4,2.2,56,0.00,,,0.00,WUHU216HW,2013-01-13 13:41:00,
2013-01-13 06:46:00,15.3,2.4,30.07,South,180,1.8,3.4,56,0.00,,,0.00,WUHU216HW,2013-01-13 13:46:00,
2013-01-13 06:51:00,15.5,2.4,30.07,SW,225,2.2,3.8,56,0.00,,,0.00,WUHU216HW,2013-01-13 13:51:00,
2013-01-13 06:56:00,15.5,2.4,30.07,SW,225,3.1,3.8,56,0.00,,,0.00,WUHU216HW,2013-01-13 13:56:00,
2013-01-13 07:01:00,15.5,2.4,30.07,SSW,203,2.9,3.6,56,0.00,,,0.00,WUHU216HW,2013-01-13 14:01:00,
2013-01-13 07:06:00,15.5,2.4,30.07,WSW,248,1.1,3.6,56,0.00,,,0.00,WUHU216HW,2013-01-13 14:06:00,
2013-01-13 07:11:00,15.5,2.4,30.07,SSW,203,1.8,3.4,56,0.00,,,0.00,WUHU216HW,2013-01-13 14:11:00,
2013-01-13 07:16:00,15.5,2.1,30.07,West,270,1.8,3.1,55,0.00,,,0.00,WUHU216HW,2013-01-13 14:16:00,
2013-01-13 07:21:00,15.3,2.4,30.08,WSW,248,0.2,3.1,56,0.00,,,0.00,WUHU216HW,2013-01-13 14:21:00,
2013-01-13 07:26:00,15.3,2.4,30.08,WSW,248,1.3,2.9,56,0.00,,,0.00,WUHU216HW,2013-01-13 14:26:00,
2013-01-13 07:31:00,15.3,2.4,30.08,WNW,293,0.2,2.5,56,0.00,,,0.00,WUHU216HW,2013-01-13 14:31:00,
2013-01-13 07:36:00,15.5,2.4,30.08,ESE,113,0.2,0.9,56,0.00,,,0.00,WUHU216HW,2013-01-13 14:36:00,
2013-01-13 07:41:00,15.7,2.6,30.08,East,90,0.4,0.7,56,0.00,,,0.00,WUHU216HW,2013-01-13 14:41:00,
2013-01-13 07:46:00,15.8,3.2,30.08,NE,45,0.0,0.7,57,0.00,,,0.00,WUHU216HW,2013-01-13 14:46:00,
2013-01-13 07:51:00,16.2,3.5,30.08,NNE,23,0.4,0.4,57,0.00,,,0.00,WUHU216HW,2013-01-13 14:51:00,
2013-01-13 07:56:00,16.4,3.7,30.08,ENE,68,0.0,0.7,57,0.00,,,0.00,WUHU216HW,2013-01-13 14:56:00,
2013-01-13 08:01:00,16.7,4.1,30.08,North,0,0.7,0.7,57,0.00,,,0.00,WUHU216HW,2013-01-13 15:01:00,
2013-01-13 08:06:00,16.9,4.2,30.08,NNE,23,0.4,0.7,57,0.00,,,0.00,WUHU216HW,2013-01-13 15:06:00,
2013-01-13 08:11:00,17.3,4.6,30.08,North,0,0.4,0.7,57,0.00,,,0.00,WUHU216HW,2013-01-13 15:11:00,
2013-01-13 08:16:00,17.6,5.0,30.08,NNW,338,0.4,1.8,57,0.00,,,0.00,WUHU216HW,2013-01-13 15:16:00,
2013-01-13 08:21:00,18.2,5.4,30.08,North,0,0.4,1.8,57,0.00,,,0.00,WUHU216HW,2013-01-13 15:21:00,
2013-01-13 08:26:00,18.5,5.3,30.08,NNW,338,0.2,0.7,56,0.00,,,0.00,WUHU216HW,2013-01-13 15:26:00,
2013-01-13 08:31:00,19.1,5.9,30.09,North,0,0.4,0.7,56,0.00,,,0.00,WUHU216HW,2013-01-13 15:31:00,
2013-01-13 08:36:00,19.4,5.8,30.09,NNE,23,0.2,0.9,55,0.00,,,0.00,WUHU216HW,2013-01-13 15:36:00,
2013-01-13 08:41:00,19.8,6.1,30.09,NNE,23,0.2,0.9,55,0.00,,,0.00,WUHU216HW,2013-01-13 15:41:00,
2013-01-13 08:46:00,20.2,6.5,30.09,North,0,1.1,1.1,55,0.00,,,0.00,WUHU216HW,2013-01-13 15:46:00,
2013-01-13 08:51:00,20.7,6.9,30.09,NNE,23,0.4,1.1,55,0.00,,,0.00,WUHU216HW,2013-01-13 15:51:00,
2013-01-13 08:56:00,21.2,7.5,30.09,NNE,23,0.0,1.1,55,0.00,,,0.00,WUHU216HW,2013-01-13 15:56:00,
2013-01-13 09:01:00,21.8,7.6,30.09,North,0,0.2,0.9,54,0.00,,,0.00,WUHU216HW,2013-01-13 16:01:00,
2013-01-13 09:06:00,22.1,7.9,30.09,NNW,338,0.4,0.9,54,0.00,,,0.00,WUHU216HW,2013-01-13 16:06:00,
2013-01-13 09:11:00,22.7,8.5,30.09,NNW,338,0.4,1.3,54,0.00,,,0.00,WUHU216HW,2013-01-13 16:11:00,
2013-01-13 09:16:00,23.2,8.6,30.09,North,0,0.9,2.5,53,0.00,,,0.00,WUHU216HW,2013-01-13 16:16:00,
2013-01-13 09:21:00,23.8,9.1,30.09,ENE,68,0.4,2.5,53,0.00,,,0.00,WUHU216HW,2013-01-13 16:21:00,
2013-01-13 09:26:00,24.3,9.2,30.09,North,0,0.4,1.8,52,0.00,,,0.00,WUHU216HW,2013-01-13 16:26:00,
2013-01-13 09:31:00,24.7,9.5,30.09,NNW,338,1.3,1.8,52,0.00,,,0.00,WUHU216HW,2013-01-13 16:31:00,
2013-01-13 09:36:00,25.2,9.5,30.09,NNE,23,0.4,2.0,51,0.00,,,0.00,WUHU216HW,2013-01-13 16:36:00,
2013-01-13 09:42:00,25.9,9.8,30.09,NNE,23,1.1,2.0,50,0.00,,,0.00,WUHU216HW,2013-01-13 16:42:00,
2013-01-13 09:46:00,26.3,10.1,30.09,North,0,1.1,1.8,50,0.00,,,0.00,WUHU216HW,2013-01-13 16:46:00,
2013-01-13 09:51:00,27.0,10.4,30.09,North,0,0.4,1.8,49,0.00,,,0.00,WUHU216HW,2013-01-13 16:51:00,
2013-01-13 09:56:00,27.7,11.0,30.09,ESE,113,0.4,1.8,49,0.00,,,0.00,WUHU216HW,2013-01-13 16:56:00,
2013-01-13 10:01:00,28.1,10.9,30.09,NNE,23,0.2,1.1,48,0.00,,,0.00,WUHU216HW,2013-01-13 17:01:00,
2013-01-13 10:06:00,28.4,11.7,30.09,SSW,203,1.1,1.8,49,0.00,,,0.00,WUHU216HW,2013-01-13 17:06:00,
2013-01-13 10:11:00,29.2,11.9,30.09,SE,135,0.2,2.9,48,0.00,,,0.00,WUHU216HW,2013-01-13 17:11:00,
2013-01-13 10:16:00,29.7,12.3,30.09,SW,225,1.6,4.9,48,0.00,,,0.00,WUHU216HW,2013-01-13 17:16:00,
2013-01-13 10:22:00,30.2,12.3,30.08,ESE,113,1.3,4.9,47,0.00,,,0.00,WUHU216HW,2013-01-13 17:22:00,
2013-01-13 10:26:00,31.0,12.5,30.08,SSW,203,3.8,6.0,46,0.00,,,0.00,WUHU216HW,2013-01-13 17:26:00,
2013-01-13 10:31:00,31.3,12.3,30.08,SSE,158,2.7,6.0,45,0.00,,,0.00,WUHU216HW,2013-01-13 17:31:00,
2013-01-13 10:36:00,32.0,13.0,30.08,SE,135,1.3,4.0,45,0.00,,,0.00,WUHU216HW,2013-01-13 17:36:00,
2013-01-13 10:41:00,32.4,12.8,30.07,SSE,158,3.8,4.0,44,0.00,,,0.00,WUHU216HW,2013-01-13 17:41:00,
2013-01-13 10:47:00,32.8,12.6,30.06,SE,135,1.1,4.9,43,0.00,,,0.00,WUHU216HW,2013-01-13 17:47:00,
2013-01-13 10:51:00,33.3,13.1,30.06,NNE,23,1.1,5.1,43,0.00,,,0.00,WUHU216HW,2013-01-13 17:51:00,
2013-01-13 10:56:00,33.5,12.8,30.05,SSE,158,4.0,5.4,42,0.00,,,0.00,WUHU216HW,2013-01-13 17:56:00,
2013-01-13 11:01:00,34.0,13.2,30.05,SE,135,0.4,5.4,42,0.00,,,0.00,WUHU216HW,2013-01-13 18:01:00,
2013-01-13 11:06:00,34.2,13.4,30.05,SE,135,3.1,4.5,42,0.00,,,0.00,WUHU216HW,2013-01-13 18:06:00,
2013-01-13 11:11:00,34.7,13.4,30.04,ESE,113,2.5,5.4,41,0.00,,,0.00,WUHU216HW,2013-01-13 18:11:00,
2013-01-13 11:16:00,35.3,13.9,30.04,East,90,2.2,5.4,41,0.00,,,0.00,WUHU216HW,2013-01-13 18:16:00,
2013-01-13 11:21:00,35.5,13.5,30.04,NNW,338,2.5,4.0,40,0.00,,,0.00,WUHU216HW,2013-01-13 18:21:00,
2013-01-13 11:26:00,35.6,13.1,30.03,SSE,158,1.8,5.6,39,0.00,,,0.00,WUHU216HW,2013-01-13 18:26:00,
2013-01-13 11:31:00,36.0,12.7,30.03,ESE,113,4.3,5.8,38,0.00,,,0.00,WUHU216HW,2013-01-13 18:31:00,
2013-01-13 11:36:00,36.4,13.1,30.02,East,90,3.8,6.7,38,0.00,,,0.00,WUHU216HW,2013-01-13 18:36:00,
2013-01-13 11:41:00,36.7,12.7,30.02,ESE,113,3.4,6.7,37,0.00,,,0.00,WUHU216HW,2013-01-13 18:41:00,
2013-01-13 11:46:00,37.1,13.1,30.02,SE,135,3.4,6.3,37,0.00,,,0.00,WUHU216HW,2013-01-13 18:46:00,
2013-01-13 11:51:00,37.4,13.3,30.01,NNE,23,2.5,5.1,37,0.00,,,0.00,WUHU216HW,2013-01-13 18:51:00,
2013-01-13 11:56:00,37.8,13.1,30.01,SE,135,4.9,5.8,36,0.00,,,0.00,WUHU216HW,2013-01-13 18:56:00,
2013-01-13 12:01:00,38.0,12.5,30.00,ESE,113,4.5,6.3,35,0.00,,,0.00,WUHU216HW,2013-01-13 19:01:00,
2013-01-13 12:06:00,38.2,12.7,30.00,ESE,113,4.7,6.3,35,0.00,,,0.00,WUHU216HW,2013-01-13 19:06:00,
2013-01-13 12:11:00,38.3,12.3,30.00,East,90,2.2,6.3,34,0.00,,,0.00,WUHU216HW,2013-01-13 19:11:00,
2013-01-13 12:16:00,38.5,12.4,29.99,ESE,113,2.2,6.7,34,0.00,,,0.00,WUHU216HW,2013-01-13 19:16:00,
2013-01-13 12:21:00,38.9,12.1,29.99,SSW,203,0.7,6.7,33,0.00,,,0.00,WUHU216HW,2013-01-13 19:21:00,
2013-01-13 12:26:00,38.9,12.1,29.99,SSE,158,4.7,9.4,33,0.00,,,0.00,WUHU216HW,2013-01-13 19:26:00,
2013-01-13 12:31:00,39.2,11.7,29.98,East,90,4.0,9.4,32,0.00,,,0.00,WUHU216HW,2013-01-13 19:31:00,
2013-01-13 12:36:00,39.4,11.9,29.98,East,90,1.8,6.9,32,0.00,,,0.00,WUHU216HW,2013-01-13 19:36:00,
2013-01-13 12:41:00,39.6,11.4,29.97,East,90,2.5,6.9,31,0.00,,,0.00,WUHU216HW,2013-01-13 19:41:00,
2013-01-13 12:46:00,40.0,11.7,29.97,ESE,113,4.3,6.9,31,0.00,,,0.00,WUHU216HW,2013-01-13 19:46:00,
2013-01-13 12:51:00,40.0,11.7,29.97,North,0,0.9,5.8,31,0.00,,,0.00,WUHU216HW,2013-01-13 19:51:00,
2013-01-13 12:56:00,39.8,10.0,29.97,NNE,23,3.1,5.8,29,0.00,,,0.00,WUHU216HW,2013-01-13 19:56:00,
2013-01-13 13:01:00,39.6,10.8,29.97,East,90,2.5,5.8,30,0.00,,,0.00,WUHU216HW,2013-01-13 20:01:00,
2013-01-13 13:06:00,40.1,11.3,29.96,East,90,5.8,5.8,30,0.00,,,0.00,WUHU216HW,2013-01-13 20:06:00,
2013-01-13 13:11:00,40.5,11.6,29.96,SSE,158,3.6,6.5,30,0.00,,,0.00,WUHU216HW,2013-01-13 20:11:00,
2013-01-13 13:16:00,41.0,12.1,29.96,East,90,5.1,6.5,30,0.00,,,0.00,WUHU216HW,2013-01-13 20:16:00,
2013-01-13 13:21:00,40.9,11.0,29.95,NNW,338,2.0,5.1,29,0.00,,,0.00,WUHU216HW,2013-01-13 20:21:00,
2013-01-13 13:26:00,40.7,10.8,29.95,ESE,113,8.5,8.9,29,0.00,,,0.00,WUHU216HW,2013-01-13 20:26:00,
2013-01-13 13:31:00,40.7,10.8,29.95,East,90,1.1,8.9,29,0.00,,,0.00,WUHU216HW,2013-01-13 20:31:00,
2013-01-13 13:36:00,40.9,11.0,29.95,SSE,158,4.5,8.5,29,0.00,,,0.00,WUHU216HW,2013-01-13 20:36:00,
2013-01-13 13:41:00,41.0,11.2,29.95,East,90,2.5,7.8,29,0.00,,,0.00,WUHU216HW,2013-01-13 20:41:00,
2013-01-13 13:46:00,40.9,10.1,29.95,NNW,338,0.9,6.7,28,0.00,,,0.00,WUHU216HW,2013-01-13 20:46:00,
2013-01-13 13:51:00,41.0,11.2,29.95,SE,135,3.6,4.5,29,0.00,,,0.00,WUHU216HW,2013-01-13 20:51:00,
2013-01-13 13:56:00,41.4,11.4,29.95,West,270,1.3,4.3,29,0.00,,,0.00,WUHU216HW,2013-01-13 20:56:00,
2013-01-13 14:01:00,41.4,10.5,29.95,ENE,68,1.8,5.8,28,0.00,,,0.00,WUHU216HW,2013-01-13 21:01:00,
2013-01-13 14:06:00,41.4,10.5,29.95,ESE,113,4.7,5.8,28,0.00,,,0.00,WUHU216HW,2013-01-13 21:06:00,
2013-01-13 14:11:00,41.6,11.6,29.95,SW,225,0.7,5.1,29,0.00,,,0.00,WUHU216HW,2013-01-13 21:11:00,
2013-01-13 14:16:00,42.1,12.1,29.95,ENE,68,2.5,3.4,29,0.00,,,0.00,WUHU216HW,2013-01-13 21:16:00,
2013-01-13 14:21:00,42.1,11.2,29.95,NNE,23,0.2,4.3,28,0.00,,,0.00,WUHU216HW,2013-01-13 21:21:00,
2013-01-13 14:26:00,42.1,11.2,29.95,NW,315,0.4,4.3,28,0.00,,,0.00,WUHU216HW,2013-01-13 21:26:00,
2013-01-13 14:31:00,41.9,11.0,29.95,East,90,5.6,6.3,28,0.00,,,0.00,WUHU216HW,2013-01-13 21:31:00,
2013-01-13 14:36:00,42.1,11.2,29.95,South,180,1.6,6.3,28,0.00,,,0.00,WUHU216HW,2013-01-13 21:36:00,
2013-01-13 14:41:00,42.1,11.2,29.94,SE,135,6.3,6.3,28,0.00,,,0.00,WUHU216HW,2013-01-13 21:41:00,
2013-01-13 14:46:00,42.3,11.3,29.95,SSE,158,2.2,6.3,28,0.00,,,0.00,WUHU216HW,2013-01-13 21:46:00,
2013-01-13 14:51:00,42.7,11.5,29.95,South,180,4.0,6.3,28,0.00,,,0.00,WUHU216HW,2013-01-13 21:51:00,
2013-01-13 14:56:00,42.7,11.5,29.94,ESE,113,5.6,6.7,28,0.00,,,0.00,WUHU216HW,2013-01-13 21:56:00,
2013-01-13 15:01:00,42.8,11.7,29.94,East,90,1.6,6.7,28,0.00,,,0.00,WUHU216HW,2013-01-13 22:01:00,
2013-01-13 15:06:00,42.8,11.7,29.94,East,90,2.7,5.6,28,0.00,,,0.00,WUHU216HW,2013-01-13 22:06:00,
2013-01-13 15:11:00,42.3,10.4,29.94,ESE,113,3.8,5.4,27,0.00,,,0.00,WUHU216HW,2013-01-13 22:11:00,
2013-01-13 15:16:00,42.1,10.3,29.94,East,90,5.8,5.8,27,0.00,,,0.00,WUHU216HW,2013-01-13 22:16:00,
2013-01-13 15:21:00,41.9,10.1,29.94,East,90,1.1,6.0,27,0.00,,,0.00,WUHU216HW,2013-01-13 22:21:00,
2013-01-13 15:26:00,41.8,9.9,29.94,East,90,2.2,6.0,27,0.00,,,0.00,WUHU216HW,2013-01-13 22:26:00,
2013-01-13 15:31:00,42.1,10.3,29.94,ESE,113,2.0,2.9,27,0.00,,,0.00,WUHU216HW,2013-01-13 22:31:00,
2013-01-13 15:36:00,42.3,10.4,29.94,SE,135,4.0,4.0,27,0.00,,,0.00,WUHU216HW,2013-01-13 22:36:00,
2013-01-13 15:41:00,42.3,10.4,29.94,ESE,113,2.7,5.4,27,0.00,,,0.00,WUHU216HW,2013-01-13 22:41:00,
2013-01-13 15:46:00,42.3,10.4,29.94,East,90,1.6,6.5,27,0.00,,,0.00,WUHU216HW,2013-01-13 22:46:00,
2013-01-13 15:51:00,41.9,10.1,29.94,ESE,113,4.0,6.5,27,0.00,,,0.00,WUHU216HW,2013-01-13 22:51:00,
2013-01-13 15:56:00,41.9,10.1,29.94,ESE,113,1.8,5.1,27,0.00,,,0.00,WUHU216HW,2013-01-13 22:56:00,
2013-01-13 16:01:00,42.3,10.4,29.94,East,90,2.7,4.0,27,0.00,,,0.00,WUHU216HW,2013-01-13 23:01:00,
2013-01-13 16:06:00,42.3,10.4,29.94,SE,135,2.9,4.7,27,0.00,,,0.00,WUHU216HW,2013-01-13 23:06:00,
2013-01-13 16:11:00,42.5,10.5,29.94,South,180,1.1,5.1,27,0.00,,,0.00,WUHU216HW,2013-01-13 23:11:00,
2013-01-13 16:16:00,42.5,10.5,29.94,ESE,113,0.9,5.1,27,0.00,,,0.00,WUHU216HW,2013-01-13 23:16:00,
2013-01-13 16:21:00,42.3,10.4,29.94,East,90,1.1,2.5,27,0.00,,,0.00,WUHU216HW,2013-01-13 23:21:00,
2013-01-13 16:26:00,42.1,10.3,29.94,NE,45,0.4,2.7,27,0.00,,,0.00,WUHU216HW,2013-01-13 23:26:00,
2013-01-13 16:31:00,41.9,10.1,29.94,ESE,113,1.6,3.1,27,0.00,,,0.00,WUHU216HW,2013-01-13 23:31:00,
2013-01-13 16:36:00,41.9,10.1,29.94,SE,135,1.3,3.6,27,0.00,,,0.00,WUHU216HW,2013-01-13 23:36:00,
2013-01-13 16:41:00,41.9,10.1,29.94,ESE,113,0.4,3.6,27,0.00,,,0.00,WUHU216HW,2013-01-13 23:41:00,
2013-01-13 16:46:00,41.8,9.9,29.94,ESE,113,0.7,2.7,27,0.00,,,0.00,WUHU216HW,2013-01-13 23:46:00,
2013-01-13 16:51:00,41.6,9.8,29.94,SE,135,0.0,2.0,27,0.00,,,0.00,WUHU216HW,2013-01-13 23:51:00,
2013-01-13 16:56:00,41.8,9.9,29.94,ENE,68,0.0,2.0,27,0.00,,,0.00,WUHU216HW,2013-01-13 23:56:00,
2013-01-13 17:01:00,41.4,9.6,29.94,ESE,113,0.2,0.9,27,0.00,,,0.00,WUHU216HW,2013-01-14 00:01:00,
2013-01-13 17:06:00,41.4,9.6,29.94,East,90,0.4,0.9,27,0.00,,,0.00,WUHU216HW,2013-01-14 00:06:00,
2013-01-13 17:11:00,41.2,9.6,29.94,East,90,0.2,0.7,27,0.00,,,0.00,WUHU216HW,2013-01-14 00:11:00,
2013-01-13 17:16:00,40.7,9.9,29.94,SE,135,0.4,0.7,28,0.00,,,0.00,WUHU216HW,2013-01-14 00:16:00,
2013-01-13 17:21:00,40.7,9.9,29.94,SE,135,0.0,0.7,28,0.00,,,0.00,WUHU216HW,2013-01-14 00:21:00,
2013-01-13 17:26:00,40.3,9.6,29.94,SE,135,0.0,0.4,28,0.00,,,0.00,WUHU216HW,2013-01-14 00:26:00,
2013-01-13 17:31:00,40.0,9.3,29.94,SE,135,0.0,0.2,28,0.00,,,0.00,WUHU216HW,2013-01-14 00:31:00,
2013-01-13 17:36:00,39.4,8.8,29.94,SE,135,0.0,0.0,28,0.00,,,0.00,WUHU216HW,2013-01-14 00:36:00,
2013-01-13 17:41:00,39.2,8.6,29.94,SE,135,0.2,0.2,28,0.00,,,0.00,WUHU216HW,2013-01-14 00:41:00,
2013-01-13 17:46:00,38.9,9.2,29.94,SE,135,0.2,0.4,29,0.00,,,0.00,WUHU216HW,2013-01-14 00:46:00,
2013-01-13 17:51:00,38.3,7.8,29.93,SE,135,0.2,0.4,28,0.00,,,0.00,WUHU216HW,2013-01-14 00:51:00,
2013-01-13 17:56:00,38.2,7.7,29.94,SE,135,0.4,0.4,28,0.00,,,0.00,WUHU216HW,2013-01-14 00:56:00,
2013-01-13 18:01:00,37.8,7.4,29.93,SE,135,0.4,0.4,28,0.00,,,0.00,WUHU216HW,2013-01-14 01:01:00,
2013-01-13 18:06:00,37.8,7.4,29.93,SE,135,0.4,0.4,28,0.00,,,0.00,WUHU216HW,2013-01-14 01:06:00,
2013-01-13 18:11:00,37.6,8.1,29.93,SSE,158,0.4,1.1,29,0.00,,,0.00,WUHU216HW,2013-01-14 01:11:00,
2013-01-13 18:16:00,37.4,7.9,29.94,South,180,0.9,1.1,29,0.00,,,0.00,WUHU216HW,2013-01-14 01:16:00,
2013-01-13 18:21:00,37.3,7.7,29.94,South,180,1.1,1.1,29,0.00,,,0.00,WUHU216HW,2013-01-14 01:21:00,
2013-01-13 18:26:00,37.1,7.7,29.94,South,180,1.1,1.1,29,0.00,,,0.00,WUHU216HW,2013-01-14 01:26:00,
2013-01-13 18:31:00,37.1,7.7,29.94,SW,225,0.7,1.1,29,0.00,,,0.00,WUHU216HW,2013-01-14 01:31:00,
2013-01-13 18:36:00,36.7,7.3,29.94,SSW,203,0.7,1.3,29,0.00,,,0.00,WUHU216HW,2013-01-14 01:36:00,
2013-01-13 18:41:00,36.7,7.3,29.94,SSW,203,0.7,1.3,29,0.00,,,0.00,WUHU216HW,2013-01-14 01:41:00,
2013-01-13 18:46:00,36.4,7.0,29.94,SW,225,0.7,1.3,29,0.00,,,0.00,WUHU216HW,2013-01-14 01:46:00,
2013-01-13 18:51:00,36.4,7.8,29.94,SW,225,0.7,1.3,30,0.00,,,0.00,WUHU216HW,2013-01-14 01:51:00,
2013-01-13 18:56:00,36.2,7.7,29.95,SSW,203,1.1,1.1,30,0.00,,,0.00,WUHU216HW,2013-01-14 01:56:00,
2013-01-13 19:01:00,36.0,7.6,29.95,SSW,203,0.9,1.8,30,0.00,,,0.00,WUHU216HW,2013-01-14 02:01:00,
2013-01-13 19:06:00,35.8,7.4,29.95,SW,225,1.8,1.8,30,0.00,,,0.00,WUHU216HW,2013-01-14 02:06:00,
2013-01-13 19:11:00,35.6,7.2,29.95,SSW,203,1.8,1.8,30,0.00,,,0.00,WUHU216HW,2013-01-14 02:11:00,
2013-01-13 19:16:00,35.5,7.0,29.95,SSW,203,1.8,2.2,30,0.00,,,0.00,WUHU216HW,2013-01-14 02:16:00,
2013-01-13 19:21:00,35.5,7.0,29.95,North,0,1.6,2.2,30,0.00,,,0.00,WUHU216HW,2013-01-14 02:21:00,
2013-01-13 19:26:00,34.7,6.5,29.95,NNW,338,0.4,2.5,30,0.00,,,0.00,WUHU216HW,2013-01-14 02:26:00,
2013-01-13 19:31:00,34.4,6.9,29.95,WNW,293,0.2,2.5,31,0.00,,,0.00,WUHU216HW,2013-01-14 02:31:00,
2013-01-13 19:36:00,34.2,6.7,29.95,West,270,0.7,0.9,31,0.00,,,0.00,WUHU216HW,2013-01-14 02:36:00,
2013-01-13 19:41:00,33.8,6.4,29.95,WSW,248,0.7,0.9,31,0.00,,,0.00,WUHU216HW,2013-01-14 02:41:00,
2013-01-13 19:46:00,33.7,6.2,29.95,WSW,248,0.4,1.1,31,0.00,,,0.00,WUHU216HW,2013-01-14 02:46:00,
2013-01-13 19:51:00,33.5,6.7,29.94,WSW,248,1.3,1.8,32,0.00,,,0.00,WUHU216HW,2013-01-14 02:51:00,
2013-01-13 19:56:00,33.1,6.4,29.95,WSW,248,1.6,1.8,32,0.00,,,0.00,WUHU216HW,2013-01-14 02:56:00,
2013-01-13 20:01:00,32.9,6.2,29.95,WSW,248,1.1,2.5,32,0.00,,,0.00,WUHU216HW,2013-01-14 03:01:00,
2013-01-13 20:06:00,32.8,6.0,29.95,SSW,203,1.8,2.5,32,0.00,,,0.00,WUHU216HW,2013-01-14 03:06:00,
2013-01-13 20:11:00,32.8,6.0,29.95,WSW,248,1.1,1.8,32,0.00,,,0.00,WUHU216HW,2013-01-14 03:11:00,
2013-01-13 20:16:00,32.6,6.5,29.95,SW,225,1.1,1.8,33,0.00,,,0.00,WUHU216HW,2013-01-14 03:16:00,
2013-01-13 20:21:00,32.6,6.5,29.95,SW,225,1.1,1.8,33,0.00,,,0.00,WUHU216HW,2013-01-14 03:21:00,
2013-01-13 20:26:00,32.4,6.4,29.95,WSW,248,1.1,1.6,33,0.00,,,0.00,WUHU216HW,2013-01-14 03:26:00,
2013-01-13 20:31:00,32.2,6.2,29.95,SW,225,0.9,1.3,33,0.00,,,0.00,WUHU216HW,2013-01-14 03:31:00,
2013-01-13 20:36:00,32.0,6.0,29.95,SW,225,0.4,1.1,33,0.00,,,0.00,WUHU216HW,2013-01-14 03:36:00,
2013-01-13 20:41:00,32.0,6.0,29.95,SW,225,0.7,1.1,33,0.00,,,0.00,WUHU216HW,2013-01-14 03:41:00,
2013-01-13 20:46:00,31.7,5.7,29.95,SW,225,1.1,1.1,33,0.00,,,0.00,WUHU216HW,2013-01-14 03:46:00,
2013-01-13 20:51:00,31.5,5.6,29.95,SW,225,0.7,1.1,33,0.00,,,0.00,WUHU216HW,2013-01-14 03:51:00,
2013-01-13 20:56:00,31.3,6.0,29.95,SW,225,0.4,1.1,34,0.00,,,0.00,WUHU216HW,2013-01-14 03:56:00,
2013-01-13 21:01:00,31.3,6.0,29.95,SW,225,0.4,1.1,34,0.00,,,0.00,WUHU216HW,2013-01-14 04:01:00,
2013-01-13 21:06:00,31.1,5.9,29.95,WSW,248,0.7,0.7,34,0.00,,,0.00,WUHU216HW,2013-01-14 04:06:00,
2013-01-13 21:11:00,30.8,5.5,29.95,WSW,248,1.3,1.3,34,0.00,,,0.00,WUHU216HW,2013-01-14 04:11:00,
2013-01-13 21:16:00,30.6,6.0,29.95,SSW,203,0.4,1.3,35,0.00,,,0.00,WUHU216HW,2013-01-14 04:16:00,
2013-01-13 21:21:00,30.2,5.7,29.95,SSW,203,0.0,1.3,35,0.00,,,0.00,WUHU216HW,2013-01-14 04:21:00,
2013-01-13 21:26:00,30.1,5.5,29.95,WSW,248,0.4,0.4,35,0.00,,,0.00,WUHU216HW,2013-01-14 04:26:00,
2013-01-13 21:31:00,29.9,5.3,29.95,SW,225,0.7,0.7,35,0.00,,,0.00,WUHU216HW,2013-01-14 04:31:00,
2013-01-13 21:36:00,29.7,5.9,29.95,SSW,203,0.0,0.9,36,0.00,,,0.00,WUHU216HW,2013-01-14 04:36:00,
2013-01-13 21:41:00,29.5,5.7,29.95,WSW,248,0.4,0.9,36,0.00,,,0.00,WUHU216HW,2013-01-14 04:41:00,
2013-01-13 21:46:00,29.3,5.5,29.95,ESE,113,0.9,0.9,36,0.00,,,0.00,WUHU216HW,2013-01-14 04:46:00,
2013-01-13 21:51:00,29.2,5.3,29.95,SE,135,0.4,1.6,36,0.00,,,0.00,WUHU216HW,2013-01-14 04:51:00,
2013-01-13 21:56:00,29.0,5.1,29.96,ESE,113,0.0,2.0,36,0.00,,,0.00,WUHU216HW,2013-01-14 04:56:00,
2013-01-13 22:01:00,29.0,5.1,29.95,East,90,0.2,2.0,36,0.00,,,0.00,WUHU216HW,2013-01-14 05:01:00,
2013-01-13 22:02:00,28.8,5.1,29.95,East,90,0.0,2.0,36,0.00,,,0.00,WUHU216HW,2013-01-14 05:02:00,
2013-01-13 22:03:00,28.8,5.1,29.95,East,90,0.0,2.0,36,0.00,,,0.00,WUHU216HW,2013-01-14 05:03:00,
2013-01-13 22:08:00,28.4,4.7,29.95,WSW,248,1.3,1.3,36,0.00,,,0.00,WUHU216HW,2013-01-14 05:08:00,
2013-01-13 22:13:00,27.7,4.7,29.95,SSE,158,0.4,2.0,37,0.00,,,0.00,WUHU216HW,2013-01-14 05:13:00,
2013-01-13 22:18:00,27.4,4.3,29.95,SW,225,1.1,2.0,37,0.00,,,0.00,WUHU216HW,2013-01-14 05:18:00,
2013-01-13 22:23:00,27.0,4.1,29.95,WSW,248,0.9,1.1,37,0.00,,,0.00,WUHU216HW,2013-01-14 05:23:00,
2013-01-13 22:28:00,27.0,4.1,29.95,WSW,248,0.9,1.1,37,0.00,,,0.00,WUHU216HW,2013-01-14 05:28:00,
2013-01-13 22:33:00,27.0,4.1,29.95,SW,225,0.9,1.6,37,0.00,,,0.00,WUHU216HW,2013-01-14 05:33:00,
2013-01-13 22:38:00,26.8,3.9,29.95,SW,225,0.9,1.6,37,0.00,,,0.00,WUHU216HW,2013-01-14 05:38:00,
2013-01-13 22:43:00,26.8,4.5,29.96,SW,225,0.0,1.1,38,0.00,,,0.00,WUHU216HW,2013-01-14 05:43:00,
2013-01-13 22:48:00,26.8,4.5,29.96,SE,135,0.4,0.9,38,0.00,,,0.00,WUHU216HW,2013-01-14 05:48:00,
2013-01-13 22:53:00,26.8,4.5,29.96,SE,135,0.0,0.7,38,0.00,,,0.00,WUHU216HW,2013-01-14 05:53:00,
2013-01-13 22:58:00,26.6,4.3,29.96,South,180,0.7,0.7,38,0.00,,,0.00,WUHU216HW,2013-01-14 05:58:00,
2013-01-13 23:03:00,26.5,4.1,29.96,South,180,0.0,0.7,38,0.00,,,0.00,WUHU216HW,2013-01-14 06:03:00,
2013-01-13 23:08:00,26.5,4.1,29.96,South,180,1.1,1.1,38,0.00,,,0.00,WUHU216HW,2013-01-14 06:08:00,
2013-01-13 23:13:00,26.5,4.8,29.96,SSW,203,0.2,1.1,39,0.00,,,0.00,WUHU216HW,2013-01-14 06:13:00,
2013-01-13 23:18:00,26.5,4.8,29.96,SSW,203,0.0,1.1,39,0.00,,,0.00,WUHU216HW,2013-01-14 06:18:00,
2013-01-13 23:23:00,26.6,5.0,29.96,WSW,248,0.2,0.7,39,0.00,,,0.00,WUHU216HW,2013-01-14 06:23:00,
2013-01-13 23:28:00,26.6,5.0,29.96,SW,225,0.4,1.3,39,0.00,,,0.00,WUHU216HW,2013-01-14 06:28:00,
2013-01-13 23:33:00,26.6,5.0,29.95,SSE,158,0.4,1.6,39,0.00,,,0.00,WUHU216HW,2013-01-14 06:33:00,
2013-01-13 23:38:00,26.6,5.0,29.95,SE,135,1.3,1.6,39,0.00,,,0.00,WUHU216HW,2013-01-14 06:38:00,
2013-01-13 23:43:00,26.8,5.1,29.95,ESE,113,0.9,1.3,39,0.00,,,0.00,WUHU216HW,2013-01-14 06:43:00,
2013-01-13 23:48:00,26.8,5.1,29.95,SE,135,0.9,1.8,39,0.00,,,0.00,WUHU216HW,2013-01-14 06:48:00,
2013-01-13 23:53:00,26.8,5.8,29.95,SE,135,2.0,2.2,40,0.00,,,0.00,WUHU216HW,2013-01-14 06:53:00,
2013-01-13 23:58:00,27.0,6.0,29.95,SE,135,1.3,2.2,40,0.00,,,0.00,WUHU216HW,2013-01-14 06:58:00,